Location: Chimay
(50.0486°N, 4.3171°E)
Time: 10:41:46
(UTC+00:00)

Spot 4 - Pass Details

Date: 08 August 2020
Orbit: 705 x 723 km, 98.3° (Epoch: 21 September)

Event Time Altitude Azimuth Distance (km) Brightness Sun altitude
Exits shadow 23:06:33 45° 235° (SW) 967 4.3 -23.5°
Maximum altitude 23:07:11 48° 261° (W) 928 4.4 -23.5°
Drops below altitude 10° 23:11:53 10° 336° (NNW) 2,207 7.4 -23.7°
Sets 23:14:14 0° 342° (NNW) 3,134 8.6 -23.7°
